• En España
  • Lista de países
  • Para 7 días
  • Temperatura del agua
  • Mapa Satelital
  • El tiempo en el mapa
  • Informadores
  • user-avatar
    Iniciar sesión

    Tiempo cada hora Trzebien

    Hoy, 19 Septiembre, Miércoles

    Tiempo Temperatura Precipitaciones Viento Presión Humedad
    00:00 +18°C° 0 mm 3 mps 753 mmHg 76%
    01:00 +18°C° 0 mm 3 mps 753 mmHg 79%
    02:00 +18°C° 0 mm 3 mps 753 mmHg 81%
    03:00 +17°C° 0 mm 3 mps 753 mmHg 83%
    04:00 +17°C° 0 mm 3 mps 753 mmHg 84%
    05:00 +18°C° 0 mm 3 mps 753 mmHg 82%
    06:00 +18°C° 0 mm 3 mps 753 mmHg 79%
    07:00 +19°C° 0 mm 3 mps 753 mmHg 76%
    08:00 +21°C° 0 mm 3 mps 754 mmHg 69%
    09:00 +24°C° 0 mm 3 mps 754 mmHg 61%
    10:00 +26°C° 0 mm 3 mps 754 mmHg 54%
    11:00 +27°C° 0 mm 3 mps 754 mmHg 50%
    12:00 +28°C° 0 mm 3 mps 754 mmHg 47%
    13:00 +29°C° 0 mm 3 mps 754 mmHg 43%
    14:00 +29°C° 0 mm 3 mps 754 mmHg 44%
    15:00 +29°C° 0 mm 3 mps 754 mmHg 44%
    16:00 +29°C° 0 mm 3 mps 754 mmHg 45%
    17:00 +27°C° 0 mm 2 mps 755 mmHg 50%
    18:00 +25°C° 0 mm 2 mps 755 mmHg 55%
    19:00 +23°C° 0 mm 1 mps 755 mmHg 60%
    20:00 +22°C° 0 mm 1 mps 755 mmHg 62%
    21:00 +21°C° 0 mm 1 mps 755 mmHg 64%
    22:00 +21°C° 0 mm 1 mps 755 mmHg 66%
    23:00 +21°C° 0 mm 1 mps 755 mmHg 67%

    Mañana, 20 Septiembre, Jueves

    Tiempo Temperatura Precipitaciones Viento Presión Humedad
    00:00 +20°C° 0 mm 1 mps 755 mmHg 67%
    01:00 +20°C° 0 mm 1 mps 755 mmHg 67%
    02:00 +19°C° 0 mm 2 mps 755 mmHg 69%
    03:00 +19°C° 0 mm 2 mps 755 mmHg 70%
    04:00 +19°C° 0 mm 2 mps 754 mmHg 72%
    05:00 +19°C° 0 mm 2 mps 755 mmHg 72%
    06:00 +20°C° 0 mm 3 mps 755 mmHg 72%
    07:00 +20°C° 0 mm 3 mps 755 mmHg 72%
    08:00 +22°C° 0 mm 3 mps 755 mmHg 66%
    09:00 +25°C° 0 mm 3 mps 755 mmHg 61%
    10:00 +27°C° 0 mm 3 mps 755 mmHg 55%
    11:00 +28°C° 0 mm 4 mps 755 mmHg 52%
    12:00 +28°C° 0 mm 4 mps 755 mmHg 50%
    13:00 +29°C° 0 mm 4 mps 755 mmHg 47%
    14:00 +29°C° 0 mm 4 mps 755 mmHg 48%
    15:00 +29°C° 0 mm 3 mps 754 mmHg 48%
    16:00 +28°C° 0 mm 3 mps 754 mmHg 49%
    17:00 +27°C° 0 mm 2 mps 754 mmHg 55%
    18:00 +25°C° 0 mm 2 mps 754 mmHg 61%
    19:00 +23°C° 0 mm 1 mps 754 mmHg 66%
    20:00 +22°C° 0 mm 1 mps 754 mmHg 68%
    21:00 +22°C° 0 mm 1 mps 754 mmHg 70%
    22:00 +21°C° 0 mm 1 mps 754 mmHg 72%
    23:00 +20°C° 0 mm 2 mps 754 mmHg 73%

    Pasado mañana, 21 Septiembre, Viernes

    Tiempo Temperatura Precipitaciones Viento Presión Humedad
    00:00 +20°C° 0 mm 2 mps 753 mmHg 74%
    01:00 +19°C° 0 mm 2 mps 753 mmHg 74%
    02:00 +19°C° 0 mm 3 mps 753 mmHg 74%
    03:00 +19°C° 0 mm 3 mps 753 mmHg 74%
    04:00 +19°C° 0 mm 3 mps 752 mmHg 74%
    05:00 +20°C° 0 mm 3 mps 752 mmHg 72%
    06:00 +20°C° 0 mm 4 mps 752 mmHg 69%
    07:00 +21°C° 0 mm 4 mps 752 mmHg 66%
    08:00 +23°C° 0 mm 5 mps 752 mmHg 60%
    09:00 +26°C° 0 mm 6 mps 751 mmHg 54%
    10:00 +28°C° 0 mm 6 mps 751 mmHg 48%
    11:00 +28°C° 0 mm 7 mps 750 mmHg 45%
    12:00 +29°C° 0 mm 7 mps 750 mmHg 42%
    13:00 +31°C° 0 mm 8 mps 749 mmHg 39%
    14:00 +30°C° 0 mm 7 mps 748 mmHg 39%
    15:00 +30°C° 0 mm 7 mps 748 mmHg 40%
    16:00 +29°C° 0 mm 6 mps 747 mmHg 40%
    17:00 +28°C° 0 mm 6 mps 747 mmHg 42%
    18:00 +27°C° 0 mm 6 mps 746 mmHg 44%
    19:00 +26°C° 0 mm 5 mps 746 mmHg 46%
    20:00 +24°C° 0 mm 6 mps 746 mmHg 49%
    21:00 +24°C° 0 mm 6 mps 746 mmHg 52%
    22:00 +23°C° 0 mm 6 mps 747 mmHg 54%
    23:00 +21°C° 0.7 mm 6 mps 747 mmHg 64%

    22 Septiembre, Sábado

    Tiempo Temperatura Precipitaciones Viento Presión Humedad
    00:00 +19°C° 0.7 mm 5 mps 747 mmHg 73%
    01:00 +17°C° 0.7 mm 4 mps 747 mmHg 82%
    02:00 +15°C° 1.4 mm 4 mps 748 mmHg 82%
    03:00 +14°C° 1.4 mm 5 mps 749 mmHg 81%
    04:00 +13°C° 1.4 mm 5 mps 750 mmHg 81%
    05:00 +12°C° 0.1 mm 5 mps 751 mmHg 79%
    06:00 +12°C° 0.1 mm 5 mps 751 mmHg 78%
    07:00 +11°C° 0.1 mm 6 mps 752 mmHg 76%
    08:00 +13°C° 0 mm 6 mps 753 mmHg 70%
    09:00 +13°C° 0 mm 6 mps 753 mmHg 64%
    10:00 +14°C° 0 mm 6 mps 754 mmHg 57%
    11:00 +15°C° 0 mm 6 mps 754 mmHg 52%
    12:00 +15°C° 0 mm 6 mps 754 mmHg 48%
    13:00 +16°C° 0 mm 7 mps 754 mmHg 43%
    14:00 +16°C° 0 mm 6 mps 754 mmHg 45%
    15:00 +16°C° 0 mm 6 mps 754 mmHg 47%
    16:00 +16°C° 0 mm 6 mps 754 mmHg 49%
    17:00 +14°C° 0 mm 5 mps 755 mmHg 53%
    18:00 +13°C° 0 mm 4 mps 755 mmHg 58%
    19:00 +12°C° 0 mm 3 mps 756 mmHg 63%
    20:00 +12°C° 0 mm 3 mps 756 mmHg 64%
    21:00 +11°C° 0 mm 3 mps 756 mmHg 65%
    22:00 +11°C° 0 mm 3 mps 756 mmHg 66%
    23:00 +11°C° 0 mm 3 mps 756 mmHg 67%

    23 Septiembre, Domingo

    Tiempo Temperatura Precipitaciones Viento Presión Humedad
    00:00 +10°C° 0 mm 3 mps 756 mmHg 68%
    01:00 +10°C° 0 mm 3 mps 756 mmHg 69%
    02:00 +10°C° 0 mm 3 mps 756 mmHg 71%
    03:00 +9°C° 0 mm 3 mps 756 mmHg 73%
    04:00 +9°C° 0 mm 3 mps 756 mmHg 75%
    05:00 +9°C° 0 mm 3 mps 756 mmHg 75%
    06:00 +9°C° 0 mm 3 mps 756 mmHg 74%
    07:00 +8°C° 0 mm 4 mps 756 mmHg 74%
    08:00 +11°C° 0 mm 4 mps 756 mmHg 68%
    09:00 +12°C° 0 mm 4 mps 756 mmHg 61%
    10:00 +14°C° 0 mm 4 mps 756 mmHg 55%
    11:00 +16°C° 0 mm 3 mps 756 mmHg 50%
    12:00 +16°C° 0 mm 3 mps 755 mmHg 45%
    13:00 +17°C° 0 mm 3 mps 755 mmHg 40%
    14:00 +17°C° 0 mm 3 mps 754 mmHg 40%
    15:00 +17°C° 0 mm 3 mps 754 mmHg 41%
    16:00 +17°C° 0 mm 3 mps 753 mmHg 42%
    17:00 +16°C° 0 mm 3 mps 752 mmHg 44%
    18:00 +14°C° 0 mm 3 mps 752 mmHg 46%
    19:00 +14°C° 0 mm 4 mps 751 mmHg 48%
    20:00 +14°C° 0.1 mm 4 mps 750 mmHg 50%
    21:00 +14°C° 0.1 mm 5 mps 750 mmHg 51%
    22:00 +14°C° 0.1 mm 5 mps 749 mmHg 52%
    23:00 +13°C° 0.1 mm 6 mps 748 mmHg 55%

    24 Septiembre, Lunes

    Tiempo Temperatura Precipitaciones Viento Presión Humedad
    00:00 +13°C° 0.1 mm 6 mps 747 mmHg 57%
    01:00 +12°C° 0.1 mm 7 mps 746 mmHg 59%
    02:00 +11°C° 1.3 mm 7 mps 746 mmHg 67%
    03:00 +11°C° 1.3 mm 7 mps 745 mmHg 75%
    04:00 +10°C° 1.3 mm 7 mps 744 mmHg 84%
    05:00 +10°C° 0.8 mm 6 mps 744 mmHg 85%
    06:00 +10°C° 0.8 mm 6 mps 743 mmHg 86%
    07:00 +10°C° 0.8 mm 6 mps 743 mmHg 87%
    08:00 +10°C° 1 mm 6 mps 743 mmHg 86%
    09:00 +12°C° 1 mm 5 mps 743 mmHg 86%
    10:00 +12°C° 1 mm 5 mps 743 mmHg 85%
    11:00 +13°C° 0.2 mm 5 mps 743 mmHg 81%
    12:00 +13°C° 0.2 mm 5 mps 742 mmHg 77%
    13:00 +14°C° 0.2 mm 5 mps 742 mmHg 73%
    14:00 +14°C° 0.1 mm 5 mps 742 mmHg 73%
    15:00 +13°C° 0.1 mm 5 mps 742 mmHg 74%
    16:00 +13°C° 0.1 mm 4 mps 741 mmHg 75%
    17:00 +13°C° 0.4 mm 4 mps 741 mmHg 78%
    18:00 +12°C° 0.4 mm 3 mps 741 mmHg 81%
    19:00 +12°C° 0.4 mm 3 mps 741 mmHg 84%
    20:00 +12°C° 0.1 mm 3 mps 741 mmHg 86%
    21:00 +12°C° 0.1 mm 4 mps 742 mmHg 87%
    22:00 +11°C° 0.1 mm 4 mps 742 mmHg 89%
    23:00 +11°C° 0.1 mm 4 mps 742 mmHg 87%
    Mostrar más